Location: Unspecified
(0.0000°N, 0.0000°E)
Time: 14:52:20
(UTC+00:00)

Altair - Pass Details

Date: 23 March 2026
Orbit: 1502 x 1682 km, 47.2° (Epoch: 18 April)

Event Time Altitude Azimuth Distance (km) Brightness Sun altitude
Rises 18:42:57 0° 266° (W) 4,861 12.5 -9.1°
Reaches altitude 10° 18:49:13 10° 295° (WNW) 3,827 10.8 -10.7°
Maximum altitude 18:52:21 12° 315° (NW) 3,654 10.2 -11.5°
Drops below altitude 10° 18:55:28 10° 334° (NNW) 3,775 9.9 -12.2°
Sets 19:01:37 0° 4° (N) 4,709 10.0 -13.8°
